Simultaneous Nadir Overpasses (SNOs) Predictions

Prediction of SNOs between METOP-A and TERRA Satellite Orbit:

Table of predicted SNOs for the next 14.0 days since TLE Epoch: 9/23/2017
Index Date (METOP-A) Time (METOP-A) Lat,Lon (METOP-A) SZA (METOP-A ) Date (TERRA) Time (TERRA) Lat,Lon (TERRA) SZA (TERRA ) Distance(km) Time Diff (sec)
1 09/23/2017 10:04:07 81.27, 71.94 84.02 09/23/2017 10:05:21 81.08, 72.26 83.96 21.68 74
2 09/23/2017 10:54:34 -81.36,-115.36 95.31 09/23/2017 10:54:35 -81.37,-115.33 95.30 0.98 1
3 09/23/2017 11:45:14 81.36, 52.30 84.75 09/23/2017 11:44:01 81.37, 52.42 84.73 2.30 73
4 09/26/2017 05:38:14 81.36, 143.34 85.75 09/26/2017 05:39:23 81.37, 143.47 85.81 2.44 69
5 09/26/2017 06:28:54 -81.36, -49.06 94.21 09/26/2017 06:28:50 -81.36, -48.95 94.19 1.88 4
6 09/29/2017 01:12:32 81.36,-149.99 86.90 09/29/2017 01:13:37 81.36,-150.13 86.92 2.48 65
7 09/29/2017 02:03:12 -81.36, 17.62 93.06 09/29/2017 02:03:04 -81.36, 17.47 93.08 2.43 8
8 10/01/2017 20:46:52 81.36, -83.72 87.99 10/01/2017 20:47:52 81.37, -83.67 88.03 1.26 60
9 10/01/2017 21:37:32 -81.36, 83.89 91.97 10/01/2017 21:37:19 -81.37, 83.95 91.96 1.23 13
10 10/04/2017 16:21:12 81.36, -17.48 89.07 10/04/2017 16:22:08 81.35, -17.54 89.09 1.25 56




NCC Satellite Simultaneous Nadir Overpasses (SNOs) Prediction Service
